COSMOS 2251 DEB

Satellite information

Favourite Embed

Satellite Type and Status

DEBRISIN ORBIT

Key statistics

Satellite COSMOS 2251 DEB at a glance.

Uptime

11817

Days in orbit

Revolutions

≈ 14.4

Per day

Orbit

LEO

Low Earth Orbit

Inclination

74.0

Latest

Satellite identification and parameters

Extended collection of information and parameters for COSMOS 2251 DEB.

Object identification

Identified? True

Debris? True

Object name: COSMOS 2251 DEB

International designator: 1993-036AAF

Object number (NORAD): 34761

Object ID (CCSDS): 34761

Country: COMMONWEALTH OF INDEPENDENT STATES (CIS)

Current information (Y/N): Y

RCS size: SMALL

Orbital parameters

Period: 100.156 minutes

Inclination: 74.0261 deg

SMA: 7144.052 km

Apoapsis: 792.853 km

Periapsis: 738.982 km

RAAN: 97.2809 deg

Eccentricy: 0.00377034

Argument of periapsis: 147.771 deg

Mean anomaly: 212.5759 deg

Mean motion: 14.37758089 rev/day

Mean motion (dot): 0.00003222 rev/day2

B* drag term: 0.0010698345 1/REarth

Two-line elements (TLE)

Creation date: Oct. 23, 2025, 2:46 a.m.

Reference frame: TEME

Reference center: EARTH

Epoch: Oct. 22, 2025, 10:52 a.m. UTC

TLE line 0: 0 COSMOS 2251 DEB

TLE line 1: 1 34761U 93036AAF 25295.45312831 .00003222 00000-0 10698-2 0 9997

TLE line 2: 2 34761 74.0261 97.2809 0037703 147.7710 212.5759 14.37758089869124

Live tracking on map

Real-time ground track for satellite COSMOS 2251 DEB.

In-orbit conjunctions

A list of the most updated potential collisions computed for object COSMOS 2251 DEB.

Target Orbit TCA Probability of collision Miss distance Type
HAIYANG 1 SSO 2024-11-07 03:36:31 0.002221654 130.0 (m) PAYLOAD
CZ-6A DEB SSO 2024-09-18 18:37:36 0.0001042452 222.0 (m) DEBRIS

Associated space launch

Military communications satellite. Destroyed in a collision with Iridium 33.

COSMOS 2251 DEB was lifted into orbit during the mission ‘Kosmos-3M | Strela-2M 51’, on board a Kosmos-3M space rocket.

The launch took place on June 16, 1993, 4:17 a.m. from 132/1 (132L).

For more information about the launch, click the button.

Launch to space Kosmos-3M | Strela-2M 51
Kosmos-3M | Strela-2M 51

Agency: N/A

Status: Launch Successful

Launch date: June 16, 1993, 4:17 a.m. UTC

Rocket: Kosmos-3M

Launch pad: 132/1 (132L)

Location: Plesetsk Cosmodrome, Russian Federation

...

Latest news about this satellite

There are no fresh news available about this satellite. Check back as we update our databases every day.


Newsletter sign-up

Weekly statistics, charts and insights to help you stay on top of the space industry.